TimeCST,TemperatureF,Dew PointF,Humidity,Sea Level PressureIn,VisibilityMPH,Wind Direction,Wind SpeedMPH,Gust SpeedMPH,PrecipitationIn,Events,Conditions,WindDirDegrees,DateUTC
12:09 AM,33.8,33.8,100,29.60,0.5,WNW,12.7,-,N/A,Fog,Fog,290,2013-01-29 06:09:00
12:22 AM,33.8,33.8,100,29.59,1.5,WNW,10.4,-,N/A,,Overcast,300,2013-01-29 06:22:00
12:28 AM,33.8,33.8,100,29.60,3.0,WNW,11.5,-,N/A,,Overcast,300,2013-01-29 06:28:00
12:48 AM,33.8,33.8,100,29.61,2.5,WNW,16.1,25.3,N/A,,Overcast,300,2013-01-29 06:48:00
12:52 AM,34.0,34.0,100,29.63,2.5,NW,13.8,-,N/A,,Overcast,310,2013-01-29 06:52:00
12:59 AM,33.8,33.8,100,29.61,3.0,NW,16.1,-,N/A,,Overcast,310,2013-01-29 06:59:00
1:52 AM,33.1,33.1,100,29.64,5.0,NW,13.8,-,N/A,,Overcast,320,2013-01-29 07:52:00
2:08 AM,33.8,32.0,93,29.62,2.0,NW,10.4,-,N/A,,Overcast,310,2013-01-29 08:08:00
2:20 AM,32.0,32.0,100,29.63,1.8,NW,12.7,-,N/A,,Overcast,310,2013-01-29 08:20:00
2:27 AM,32.0,32.0,100,29.63,3.0,NW,12.7,-,N/A,,Overcast,320,2013-01-29 08:27:00
2:52 AM,32.0,30.9,96,29.65,5.0,NW,9.2,-,N/A,,Overcast,310,2013-01-29 08:52:00
3:52 AM,30.9,30.9,100,29.67,5.0,WNW,9.2,-,N/A,,Overcast,290,2013-01-29 09:52:00
4:52 AM,32.0,30.9,96,29.64,6.0,NW,11.5,-,N/A,,Overcast,320,2013-01-29 10:52:00
5:00 AM,32.0,30.2,93,29.61,7.0,NW,12.7,-,N/A,,Overcast,320,2013-01-29 11:00:00
5:52 AM,32.0,30.0,92,29.66,9.0,NW,8.1,-,N/A,,Overcast,310,2013-01-29 11:52:00
6:52 AM,32.0,30.0,92,29.67,8.0,NNW,13.8,23.0,N/A,,Overcast,330,2013-01-29 12:52:00
7:52 AM,30.9,28.9,92,29.70,10.0,NW,13.8,-,N/A,,Overcast,310,2013-01-29 13:52:00
8:52 AM,30.9,28.9,92,29.73,7.0,NW,11.5,-,N/A,,Overcast,320,2013-01-29 14:52:00
9:10 AM,30.2,28.4,93,29.69,7.0,NW,11.5,-,N/A,,Overcast,320,2013-01-29 15:10:00
9:52 AM,30.9,28.9,92,29.73,7.0,NNW,12.7,-,N/A,,Overcast,340,2013-01-29 15:52:00
10:02 AM,30.2,28.4,93,29.69,7.0,NNW,12.7,-,N/A,,Overcast,330,2013-01-29 16:02:00
10:52 AM,33.1,28.9,85,29.73,10.0,North,15.0,-,N/A,,Overcast,350,2013-01-29 16:52:00
11:35 AM,33.8,30.2,87,29.70,10.0,North,9.2,19.6,N/A,,Overcast,10,2013-01-29 17:35:00
11:52 AM,34.0,28.9,82,29.72,10.0,North,17.3,-,N/A,,Overcast,10,2013-01-29 17:52:00
12:52 PM,37.0,30.0,76,29.69,10.0,NNE,16.1,21.9,N/A,,Mostly Cloudy,20,2013-01-29 18:52:00
1:52 PM,35.1,30.0,82,29.70,10.0,North,16.1,-,N/A,,Overcast,360,2013-01-29 19:52:00
2:52 PM,37.0,30.0,76,29.70,10.0,North,17.3,-,N/A,,Overcast,360,2013-01-29 20:52:00
3:52 PM,37.0,30.9,79,29.68,10.0,North,17.3,-,N/A,,Overcast,360,2013-01-29 21:52:00
4:52 PM,36.0,30.0,79,29.69,10.0,North,8.1,-,N/A,,Overcast,350,2013-01-29 22:52:00
4:54 PM,35.6,30.2,81,29.66,10.0,North,8.1,-,N/A,,Overcast,360,2013-01-29 22:54:00
5:52 PM,35.1,27.0,72,29.70,10.0,North,12.7,-,N/A,,Overcast,360,2013-01-29 23:52:00
6:52 PM,34.0,27.0,75,29.73,10.0,NNW,11.5,-,N/A,,Overcast,340,2013-01-30 00:52:00
7:52 PM,33.1,27.0,78,29.74,10.0,North,17.3,-,N/A,,Overcast,350,2013-01-30 01:52:00
8:52 PM,33.1,27.0,78,29.75,10.0,North,18.4,-,N/A,,Overcast,350,2013-01-30 02:52:00
9:52 PM,30.9,26.1,82,29.77,10.0,North,16.1,-,N/A,,Overcast,350,2013-01-30 03:52:00
10:39 PM,30.2,24.8,80,29.70,10.0,North,26.5,-,N/A,,Overcast,360,2013-01-30 04:39:00
10:52 PM,28.9,23.0,78,29.75,10.0,North,19.6,-,N/A,,Overcast,10,2013-01-30 04:52:00
11:01 PM,28.4,23.0,80,29.72,10.0,North,23.0,27.6,N/A,,Overcast,360,2013-01-30 05:01:00
11:52 PM,27.0,21.9,81,29.79,10.0,North,20.7,29.9,N/A,,Overcast,350,2013-01-30 05:52:00